Regional Weather Roundup
Issued by NWS Little Rock, AR

Home | Current Version | Previous Version | Graphics & Text | Print | Product List | Glossary On
Versions: 1 2 3 4 5 6 7 8 9 10 11 12 13 14 15 16 17 18 19 20 21 22 23 24 25 26 27 28 29 30 31
000
ASUS44 KLZK 090405
RWRLZK

WEATHER ROUNDUP FOR ARKANSAS
NATIONAL WEATHER SERVICE LITTLE ROCK AR
1000 PM CST THU DEC 08 2016

NOTE: "FAIR" INDICATES FEW OR NO CLOUDS BELOW 12,000 FEET WITH NO
SIGNIFICANT WEATHER AND/OR OBSTRUCTIONS TO VISIBILITY.

ARZ001-003-010-029-090500-
NORTHWEST ARKANSAS

CITY           SKY/WX    TMP DP  RH WIND       PRES   REMARKS
FAYETTEVILLE   CLEAR     22  12  65 N3        30.62S
FORT SMITH     CLEAR     28  12  51 NW7       30.67R WCI  21
HARRISON       CLEAR     20  13  74 NW7       30.60R WCI  11
BENTONVILLE    CLEAR     21   9  58 N7        30.62S WCI  13
ROGERS         CLEAR     20  13  74 N6        30.62S WCI  12
SILOAM SPGS    CLEAR     19  10  68 N5        30.62S WCI  13
HIGHFILL       CLEAR     19  11  70 N6        30.62S WCI  11
$$

ARZ004-005-016-090500-
NORTH CENTRAL ARKANSAS

CITY           SKY/WX    TMP DP  RH WIND       PRES   REMARKS
BATESVILLE     CLEAR     27  12  54 W3        30.62S
FLIPPIN        CLEAR     27  10  50 NW9       30.60R WCI  17
MTN HOME       CLEAR     24  14  65 N6        30.60S WCI  17
$$

ARZ040-041-090500-
WEST CENTRAL ARKANSAS

CITY           SKY/WX    TMP DP  RH WIND       PRES   REMARKS
MENA           CLEAR     32  14  47 N3        30.60S
MOUNT IDA      CLEAR     29  10  45 NW6       30.59R WCI  23
$$

ARZ009-017-025-026-028-090500-
NORTHEAST ARKANSAS

CITY           SKY/WX    TMP DP  RH WIND       PRES   REMARKS
CORNING        FAIR      28  18  64 NW7       30.61R WCI  21
JONESBORO      CLEAR     30  16  56 NW8       30.60R WCI  22
NEWPORT        CLEAR     28  17  63 NW13      30.62R WCI  17
WALNUT RIDGE   CLEAR     27  14  59 NW12      30.60F WCI  16
BLYTHEVILLE    CLEAR     28  21  75 NW10      30.59R WCI  19
$$

ARZ022-023-033-042-044-090500-
CENTRAL ARKANSAS

CITY           SKY/WX    TMP DP  RH WIND       PRES   REMARKS
LITTLE ROCK    CLEAR     30  13  49 N12       30.63R WCI  20
N LITTLE ROCK    N/A     30  13  49 N6        30.65R WCI  24
JACKSONVILLE   CLEAR     30  12  46 NW3       30.61R
SEARCY         CLEAR     28  15  58 N5        30.64R WCI  23
HOT SPRINGS    CLEAR     32  12  43 VRB3      30.61R
RUSSELLVILLE   CLEAR     28  12  51 NW5       30.63R WCI  23
CLINTON        FAIR      28  12  50 VRB3      30.62S
$$

ARZ036-090500-
EAST ARKANSAS

CITY           SKY/WX    TMP DP  RH WIND       PRES   REMARKS
WEST MEMPHIS   CLEAR     30  21  69 N6        30.58S WCI  24
$$

ARZ050-053-066-070-073-090500-
SOUTHWEST ARKANSAS

CITY           SKY/WX    TMP DP  RH WIND       PRES   REMARKS
ARKADELPHIA    FAIR      27  24  89 N3        30.62S
CAMDEN         CLEAR     27  21  80 MISG      30.61S
TEXARKANA      CLEAR     30  19  63 N5        30.61S WCI  25
EL DORADO      CLOUDY    32  25  75 N3        30.60R
DE QUEEN       CLEAR     26  20  77 CALM      30.62R
$$

ARZ056-057-069-090500-
SOUTHEAST ARKANSAS

CITY           SKY/WX    TMP DP  RH WIND       PRES   REMARKS
PINE BLUFF     CLEAR     28  19  69 N6        30.61R WCI  22
STUTTGART      CLEAR     28  18  64 N9        30.61S WCI  20
MONTICELLO     CLEAR     30  21  69 CALM      30.60R

$$






USA.gov is the U.S. government's official web portal to all federal, state and local government web resources and services.